Weather History for Lakeland Region, FL

Change the Weather History Date:

Sunday, March 9, 2014

  Actual Average Record
Temperature  
Mean Temperature 64 °F -  
Max Temperature 78 °F 75 °F 87 °F (1992)
Min Temperature 51 °F 55 °F 32 °F (1996)
Growing Degree Days 14 (Base 50)    
Moisture  
Dew Point 52 °F    
Average Humidity 80    
Maximum Humidity 100    
Minimum Humidity 34    
Precipitation  
Precipitation 0.00 in - - ()
Sea Level Pressure  
Sea Level Pressure 30.15 in    
Wind  
Wind Speed 1 mph (NW)    
Max Wind Speed 13 mph    
Max Gust Speed 17 mph    
Visibility 11 miles    
Events      
Averages and records for this station are not official NWS values.
T = Trace of Precipitation, MM = Missing Value Source: NWS Daily Summary

Daily Weather History Graph

Daily Weather History Graph

Search for Another Location

Airport:

Trip Planner

Search our weather history database for the weather conditions in past years. The results will help you decide how hot, cold, wet, or windy it might be!

Date:

Astronomy

Mar. 09, 2014 Rise Set
Actual Time 7:44 AM EDT 7:33 PM EDT
Civil Twilight 7:20 AM EDT 7:56 PM EDT
Nautical Twilight 6:53 AM EDT 8:23 PM EDT
Astronomical Twilight 6:26 AM EDT 8:51 PM EDT
Moon 1:46 PM EDT (3/9) 3:47 AM EDT (3/9)
Length of Visible Light 12h 35m
Length of Day
11h 49m
First Quarter, 61% of the Moon is Illuminated
Mar 9
First Quarter
Mar 16
Full
Mar 23
Last Quarter
Mar 30
New
Apr 7
First Quarter

Hourly Weather History & Observations

Time (EDT) Temp. Dew Point Humidity Pressure Visibility Wind Dir Wind Speed Gust Speed Precip Events Conditions
12:15 AM 53.6 °F 51.8 °F 94% 30.17 in 10.0 mi Calm Calm - N/A   Clear
12:35 AM 53.6 °F 51.8 °F 94% 30.17 in 10.0 mi North 3.5 mph - N/A   Clear
12:55 AM 53.6 °F 51.8 °F 94% 30.17 in 10.0 mi Calm Calm - N/A   Clear
1:15 AM 53.6 °F 51.8 °F 94% 30.16 in 10.0 mi Calm Calm - N/A   Clear
1:35 AM 51.8 °F 50.0 °F 94% 30.16 in 10.0 mi Calm Calm - N/A   Clear
1:55 AM 51.8 °F 51.8 °F 100% 30.16 in 10.0 mi North 3.5 mph - N/A   Clear
3:15 AM 51.8 °F 51.8 °F 100% 30.15 in 10.0 mi Calm Calm - N/A   Clear
3:35 AM 51.8 °F 51.8 °F 100% 30.15 in 10.0 mi Calm Calm - N/A   Clear
3:55 AM 51.8 °F 51.8 °F 100% 30.15 in 10.0 mi Calm Calm - N/A   Clear
4:15 AM 51.8 °F 51.8 °F 100% 30.14 in 10.0 mi Calm Calm - N/A   Clear
4:35 AM 51.8 °F 50.0 °F 94% 30.13 in 10.0 mi Calm Calm - N/A   Clear
4:55 AM 51.8 °F 51.8 °F 100% 30.13 in 10.0 mi Calm Calm - N/A   Clear
5:15 AM 51.8 °F 51.8 °F 100% 30.14 in 7.0 mi Calm Calm - N/A   Clear
5:35 AM 51.8 °F 51.8 °F 100% 30.14 in 7.0 mi Calm Calm - N/A   Clear
5:50 AM 57.2 °F 51.8 °F 82% 30.14 in 12.0 mi Calm Calm - N/A   Clear
5:55 AM 51.8 °F 51.8 °F 100% 30.15 in 7.0 mi Calm Calm - N/A   Clear
6:15 AM 51.8 °F 51.8 °F 100% 30.16 in 5.0 mi Calm Calm - N/A   Clear
6:35 AM 51.8 °F 51.8 °F 100% 30.16 in 5.0 mi North 3.5 mph - N/A   Clear
6:50 AM 51.8 °F 51.8 °F 100% 30.17 in 10.0 mi Calm Calm - N/A   Clear
7:50 AM 51.8 °F 51.8 °F 100% 30.18 in 4.0 mi Calm Calm - N/A   Clear
8:50 AM 55.4 °F 55.4 °F 100% 30.21 in 7.0 mi Calm Calm - N/A   Clear
9:50 AM 60.8 °F 57.2 °F 88% 30.22 in 8.0 mi Calm Calm - N/A   Clear
10:50 AM 60.8 °F 57.2 °F 88% 30.23 in 12.0 mi Calm Calm - N/A   Clear
11:50 AM 69.8 °F 55.4 °F 60% 30.22 in 15.0 mi Calm Calm - N/A   Clear
12:50 PM 73.4 °F 53.6 °F 50% 30.19 in 15.0 mi Calm Calm - N/A   Partly Cloudy
1:55 PM 75.2 °F 51.8 °F 44% 30.16 in 15.0 mi WSW 3.5 mph - N/A   Clear
2:54 PM 77.0 °F 51.8 °F 41% 30.13 in 15.0 mi Calm Calm - N/A   Clear
3:58 PM 78.8 °F 48.2 °F 34% 30.11 in 15.0 mi WNW 5.8 mph - N/A   Partly Cloudy
4:58 PM 78.8 °F 48.2 °F 34% 30.09 in 15.0 mi Calm Calm - N/A   Partly Cloudy
5:51 PM 78.8 °F 48.2 °F 34% 30.10 in 15.0 mi NW 4.6 mph - N/A   Scattered Clouds
6:51 PM 75.2 °F 51.8 °F 44% 30.10 in 15.0 mi WNW 12.7 mph 17.3 mph N/A   Scattered Clouds
7:52 PM 69.8 °F 53.6 °F 56% 30.11 in 15.0 mi NW 8.1 mph - N/A   Scattered Clouds
8:54 PM 64.4 °F 53.6 °F 68% 30.13 in 15.0 mi WNW 4.6 mph - N/A   Scattered Clouds
9:51 PM 64.4 °F 53.6 °F 68% 30.13 in 15.0 mi Calm Calm - N/A   Scattered Clouds
10:55 PM 60.8 °F 51.8 °F 72% 30.16 in 10.0 mi NNW 4.6 mph - N/A   Clear
11:15 PM 60.8 °F 51.8 °F 72% 30.16 in 10.0 mi NW 6.9 mph - N/A   Clear
11:35 PM 60.8 °F 53.6 °F 77% 30.16 in 10.0 mi NNW 5.8 mph - N/A   Clear
11:55 PM 60.8 °F 53.6 °F 77% 30.16 in 10.0 mi NNW 3.5 mph - N/A   Clear
12:15 AM 60.8 °F 53.6 °F 77% 30.16 in 10.0 mi NW 4.6 mph - N/A   Clear
12:35 AM 59.0 °F 53.6 °F 82% 30.16 in 10.0 mi NNW 3.5 mph - N/A   Clear
12:55 AM 59.0 °F 53.6 °F 82% 30.16 in 10.0 mi Calm Calm - N/A   Clear